Weather History for Madison, SD

Change the Weather History Date:

Wednesday, September 18, 2013

  Actual Average Record
Temperature  
Mean Temperature 76 °F -  
Max Temperature 87 °F 73 °F 87 °F (2013)
Min Temperature 64 °F 48 °F 33 °F (2012)
Cooling Degree Days 10    
Growing Degree Days 26 (Base 50)    
Moisture  
Dew Point 68 °F    
Average Humidity 83    
Maximum Humidity 100    
Minimum Humidity 49    
Precipitation  
Precipitation 0.00 in - - ()
Sea Level Pressure  
Sea Level Pressure 29.70 in    
Wind  
Wind Speed 13 mph (South)    
Max Wind Speed 18 mph    
Max Gust Speed 28 mph    
Visibility 9 miles    
Events      
Averages and records for this station are not official NWS values.
T = Trace of Precipitation, MM = Missing Value Source: NWS Daily Summary

Daily Weather History Graph

Daily Weather History Graph

Search for Another Location

Airport:

Trip Planner

Search our weather history database for the weather conditions in past years. The results will help you decide how hot, cold, wet, or windy it might be!

Date:

Astronomy

Sep. 18, 2013 Rise Set
Actual Time 7:11 AM CDT 7:32 PM CDT
Civil Twilight 6:42 AM CDT 8:01 PM CDT
Nautical Twilight 6:08 AM CDT 8:35 PM CDT
Astronomical Twilight 5:33 AM CDT 9:10 PM CDT
Moon 6:55 PM CDT (9/18) 6:14 AM CDT (9/18)
Length of Visible Light 13h 19m
Length of Day
12h 21m
Waxing Gibbous, 99% of the Moon is Illuminated
Sep 18
Waxing Gibbous
Sep 19
Full
Sep 26
Last Quarter
Oct 4
New
Oct 11
First Quarter

Hourly Weather History & Observations

Time (CDT) Temp. Heat Index Dew Point Humidity Pressure Visibility Wind Dir Wind Speed Gust Speed Precip Events Conditions
12:10 AM 64.4 °F - 64.4 °F 100% 29.83 in 3.0 mi South 13.8 mph 17.3 mph N/A   Overcast
12:30 AM 64.4 °F - 64.4 °F 100% 29.83 in 3.0 mi South 13.8 mph 19.6 mph N/A   Overcast
12:50 AM 64.4 °F - 64.4 °F 100% 29.82 in 2.5 mi South 11.5 mph - N/A   Overcast
1:10 AM 64.4 °F - 64.4 °F 100% 29.81 in 3.0 mi SSE 11.5 mph 17.3 mph N/A   Overcast
1:30 AM 64.4 °F - 64.4 °F 100% 29.81 in 3.0 mi SSE 13.8 mph 19.6 mph N/A   Overcast
1:50 AM 64.4 °F - 64.4 °F 100% 29.80 in 3.0 mi South 13.8 mph 19.6 mph N/A   Overcast
2:10 AM 64.4 °F - 64.4 °F 100% 29.79 in 4.0 mi SSE 11.5 mph 18.4 mph N/A   Overcast
2:30 AM 64.4 °F - 64.4 °F 100% 29.79 in 5.0 mi South 12.7 mph 19.6 mph N/A   Overcast
2:50 AM 66.2 °F - 66.2 °F 100% 29.78 in 5.0 mi South 11.5 mph - N/A   Overcast
3:10 AM 66.2 °F - 66.2 °F 100% 29.78 in 7.0 mi South 11.5 mph 17.3 mph N/A   Overcast
3:30 AM 66.2 °F - 66.2 °F 100% 29.77 in 5.0 mi South 10.4 mph - N/A   Overcast
3:50 AM 66.2 °F - 66.2 °F 100% 29.76 in 9.0 mi South 12.7 mph - N/A   Overcast
4:10 AM 66.2 °F - 66.2 °F 100% 29.75 in 10.0 mi South 12.7 mph 18.4 mph N/A   Overcast
4:30 AM 66.2 °F - 66.2 °F 100% 29.75 in 10.0 mi South 13.8 mph 18.4 mph N/A   Overcast
4:50 AM 66.2 °F - 66.2 °F 100% 29.75 in 10.0 mi South 12.7 mph 19.6 mph N/A   Overcast
5:10 AM 66.2 °F - 66.2 °F 100% 29.74 in 10.0 mi South 12.7 mph 19.6 mph N/A   Overcast
5:30 AM 66.2 °F - 66.2 °F 100% 29.74 in 10.0 mi South 11.5 mph 19.6 mph N/A   Overcast
5:50 AM 66.2 °F - 66.2 °F 100% 29.73 in 10.0 mi South 12.7 mph - N/A   Overcast
6:10 AM 66.2 °F - 66.2 °F 100% 29.72 in 10.0 mi South 13.8 mph - N/A   Overcast
6:30 AM 66.2 °F - 66.2 °F 100% 29.72 in 10.0 mi South 13.8 mph - N/A   Overcast
6:50 AM 66.2 °F - 66.2 °F 100% 29.72 in 10.0 mi South 11.5 mph 18.4 mph N/A   Overcast
7:10 AM 66.2 °F - 66.2 °F 100% 29.73 in 10.0 mi South 11.5 mph 18.4 mph N/A   Overcast
7:30 AM 66.2 °F - 66.2 °F 100% 29.73 in 10.0 mi South 12.7 mph 18.4 mph N/A   Overcast
7:50 AM 66.2 °F - 66.2 °F 100% 29.74 in 10.0 mi South 12.7 mph 17.3 mph N/A   Overcast
8:10 AM 66.2 °F - 66.2 °F 100% 29.75 in 10.0 mi South 10.4 mph - N/A   Overcast
8:30 AM 68.0 °F - 68.0 °F 100% 29.74 in 10.0 mi South 10.4 mph - N/A   Overcast
8:50 AM 68.0 °F - 68.0 °F 100% 29.74 in 10.0 mi South 11.5 mph - N/A   Overcast
9:10 AM 68.0 °F - 68.0 °F 100% 29.74 in 10.0 mi South 12.7 mph 20.7 mph N/A   Overcast
9:30 AM 68.0 °F - 68.0 °F 100% 29.74 in 10.0 mi South 11.5 mph 19.6 mph N/A   Overcast
9:50 AM 68.0 °F - 68.0 °F 100% 29.73 in 10.0 mi South 15.0 mph 20.7 mph N/A   Overcast
10:10 AM 69.8 °F - 69.8 °F 100% 29.73 in 10.0 mi South 13.8 mph 21.9 mph N/A   Overcast
10:30 AM 71.6 °F - 71.6 °F 100% 29.73 in 10.0 mi South 13.8 mph 19.6 mph N/A   Overcast
10:50 AM 73.4 °F - 71.6 °F 94% 29.72 in 10.0 mi South 13.8 mph 20.7 mph N/A   Overcast
11:10 AM 75.2 °F - 71.6 °F 89% 29.72 in 10.0 mi South 16.1 mph 21.9 mph N/A   Mostly Cloudy
11:30 AM 75.2 °F - 71.6 °F 89% 29.71 in 10.0 mi South 16.1 mph 20.7 mph N/A   Scattered Clouds
11:50 AM 77.0 °F - 71.6 °F 83% 29.70 in 10.0 mi South 15.0 mph 20.7 mph N/A   Clear
12:10 PM 78.8 °F - 69.8 °F 74% 29.70 in 10.0 mi South 15.0 mph 20.7 mph N/A   Clear
12:30 PM 80.6 °F 83.2 °F 68.0 °F 65% 29.70 in 10.0 mi South 12.7 mph 20.7 mph N/A   Clear
12:50 PM 82.4 °F 85.4 °F 68.0 °F 62% 29.70 in 10.0 mi South 16.1 mph 21.9 mph N/A   Clear
1:10 PM 82.4 °F 85.4 °F 68.0 °F 62% 29.69 in 10.0 mi SSE 16.1 mph 19.6 mph N/A   Clear
1:30 PM 84.2 °F 87.3 °F 68.0 °F 58% 29.68 in 10.0 mi South 16.1 mph 23.0 mph N/A   Clear
1:50 PM 84.2 °F 87.3 °F 68.0 °F 58% 29.67 in 10.0 mi South 16.1 mph 24.2 mph N/A   Clear
2:10 PM 84.2 °F 87.3 °F 68.0 °F 58% 29.66 in 10.0 mi South 18.4 mph 25.3 mph N/A   Clear
2:30 PM 86.0 °F 89.4 °F 68.0 °F 55% 29.66 in 10.0 mi South 15.0 mph 23.0 mph N/A   Clear
2:50 PM 86.0 °F 89.4 °F 68.0 °F 55% 29.65 in 10.0 mi South 18.4 mph 26.5 mph N/A   Clear
3:10 PM 86.0 °F 89.4 °F 68.0 °F 55% 29.65 in 10.0 mi South 18.4 mph 25.3 mph N/A   Clear
3:30 PM 86.0 °F 88.2 °F 66.2 °F 51% 29.65 in 10.0 mi South 18.4 mph 26.5 mph N/A   Clear
3:50 PM 86.0 °F 88.2 °F 66.2 °F 51% 29.65 in 10.0 mi South 17.3 mph 26.5 mph N/A   Clear
4:10 PM 87.8 °F 90.4 °F 66.2 °F 49% 29.65 in 10.0 mi South 17.3 mph 24.2 mph N/A   Clear
4:30 PM 87.8 °F 90.4 °F 66.2 °F 49% 29.65 in 10.0 mi South 13.8 mph 25.3 mph N/A   Clear
4:50 PM 87.8 °F 90.4 °F 66.2 °F 49% 29.65 in 10.0 mi South 13.8 mph 27.6 mph N/A   Clear
5:10 PM 86.0 °F 88.2 °F 66.2 °F 51% 29.64 in 10.0 mi South 18.4 mph 26.5 mph N/A   Clear
5:30 PM 86.0 °F 88.2 °F 66.2 °F 51% 29.64 in 10.0 mi South 17.3 mph 23.0 mph N/A   Clear
5:50 PM 86.0 °F 88.2 °F 66.2 °F 51% 29.64 in 10.0 mi South 17.3 mph 21.9 mph N/A   Clear
6:10 PM 86.0 °F 88.2 °F 66.2 °F 51% 29.64 in 10.0 mi South 15.0 mph - N/A   Clear
6:30 PM 84.2 °F 86.6 °F 66.2 °F 55% 29.64 in 10.0 mi South 15.0 mph 23.0 mph N/A   Clear
6:50 PM 84.2 °F 86.6 °F 66.2 °F 55% 29.64 in 10.0 mi South 16.1 mph - N/A   Clear
7:10 PM 82.4 °F 85.4 °F 68.0 °F 62% 29.64 in 10.0 mi South 11.5 mph 17.3 mph N/A   Clear
7:30 PM 80.6 °F 83.2 °F 68.0 °F 65% 29.63 in 10.0 mi South 11.5 mph 18.4 mph N/A   Clear
7:50 PM 80.6 °F 83.2 °F 68.0 °F 65% 29.63 in 10.0 mi South 10.4 mph - N/A   Clear
8:10 PM 78.8 °F - 68.0 °F 69% 29.63 in 10.0 mi SSE 10.4 mph - N/A   Clear
8:30 PM 77.0 °F - 68.0 °F 74% 29.65 in 10.0 mi South 8.1 mph - N/A   Clear
8:50 PM 75.2 °F - 68.0 °F 78% 29.65 in 10.0 mi South 10.4 mph - N/A   Clear
9:10 PM 75.2 °F - 68.0 °F 78% 29.64 in 10.0 mi South 11.5 mph - N/A   Clear
9:30 PM 75.2 °F - 69.8 °F 83% 29.64 in 10.0 mi South 10.4 mph - N/A   Clear
9:50 PM 73.4 °F - 69.8 °F 88% 29.63 in 10.0 mi South 10.4 mph - N/A   Clear
10:10 PM 73.4 °F - 71.6 °F 94% 29.65 in 10.0 mi SSE 10.4 mph - N/A   Clear
10:30 PM 73.4 °F - 71.6 °F 94% 29.64 in 10.0 mi SSE 10.4 mph - N/A   Clear
10:50 PM 73.4 °F - 71.6 °F 94% 29.64 in 10.0 mi South 10.4 mph - N/A   Clear
11:10 PM 73.4 °F - 71.6 °F 94% 29.64 in 10.0 mi South 10.4 mph 16.1 mph N/A   Clear
11:30 PM 73.4 °F - 71.6 °F 94% 29.64 in 10.0 mi South 11.5 mph - N/A   Clear
11:50 PM 73.4 °F - 71.6 °F 94% 29.64 in 10.0 mi SSE 9.2 mph - N/A   Clear